GFSSGP_250_rhum_276.txt.gz
RH
100 97 90 100 99 95 100 87 55 38 82 70 71 74 77 80 76 70 85 81 45 41 38 29 31 30 27 25 31 22 9 10 34 56 52 59 59 53 56 40 34 30 38 63 81 71 86 88 82
97 92 81 100 80 92 100 88 49 37 71 82 80 80 85 80 78 70 93 86 72 45 39 37 33 35 35 25 23 29 26 11 9 27 42 52 53 64 73 66 44 45 35 55 67 61 78 80 78
86 95 78 83 96 100 83 89 49 49 61 86 83 77 86 78 71 98 86 80 85 59 42 34 37 38 39 40 30 22 26 27 14 10 23 79 81 92 89 89 66 56 43 71 92 62 55 60 62
85 100 91 100 90 96 80 81 60 55 75 89 88 86 76 70 70 80 97 75 77 85 50 41 43 39 41 42 44 33 24 22 28 18 10 34 100 100 100 87 70 64 46 73 41 39 45 37 43
84 100 100 100 100 100 100 73 53 61 75 100 100 100 82 59 66 69 83 83 76 96 83 48 51 47 39 48 48 48 41 29 22 31 26 13 38 53 84 80 54 66 50 68 52 44 46 44 50
85 97 100 95 100 91 90 78 66 65 78 96 99 100 100 66 58 68 72 72 74 89 96 65 48 57 46 39 43 46 47 38 34 27 31 34 24 14 38 99 83 100 86 90 77 71 56 59 62
64 81 96 100 98 72 79 82 90 64 97 94 96 95 100 81 54 56 69 73 64 72 93 75 51 47 49 42 45 39 39 39 36 34 33 30 32 33 27 16 74 100 100 100 100 100 98 100 100
81 62 100 100 100 71 75 78 61 76 70 100 95 100 100 100 70 57 73 88 79 54 71 69 58 52 43 41 37 38 40 38 36 36 35 35 35 28 28 22 22 21 17 16 15 28 47 13 13
93 79 98 100 100 96 84 68 60 61 55 88 97 96 100 100 99 93 64 68 98 72 62 76 70 55 44 47 42 40 45 42 39 37 36 36 38 41 38 35 35 35 29 24 21 21 21 20 18
83 98 78 96 94 100 89 79 62 62 57 54 79 100 94 100 100 100 100 74 94 100 86 68 71 60 49 51 45 40 49 42 41 41 39 33 32 32 35 39 39 38 36 34 33 33 30 28 26
100 91 100 95 88 99 100 89 82 81 55 47 58 87 87 90 96 88 94 87 100 91 97 94 74 74 64 52 54 46 54 46 46 44 40 36 34 33 30 31 32 34 36 39 40 39 35 34 35
97 100 100 100 99 100 100 100 78 75 76 62 56 63 77 75 88 92 90 83 95 91 97 100 94 80 76 61 61 59 60 59 52 54 48 43 39 45 41 32 30 32 32 34 40 42 43 42 41
66 93 100 98 94 100 99 100 100 63 61 51 63 50 85 77 77 100 99 93 93 98 94 99 100 99 91 91 72 66 69 70 64 59 63 58 53 49 51 48 40 36 33 32 32 38 46 47 46
39 43 75 99 95 92 77 91 100 82 68 61 48 59 62 82 90 100 100 97 93 88 99 91 98 100 100 100 91 82 72 79 78 70 61 73 58 60 64 58 53 46 37 38 42 42 38 44 49
19 25 36 66 94 78 65 59 82 88 78 63 46 41 57 61 69 82 100 100 100 88 80 97 87 88 93 94 100 92 84 86 86 86 75 68 74 61 61 67 67 62 60 52 48 41 47 44 44
13 16 14 32 80 77 61 59 96 100 100 100 57 48 56 54 65 90 94 99 100 100 97 95 99 84 75 85 97 98 97 84 92 88 82 88 90 74 80 88 67 70 86 88 83 67 59 46 54
16 13 11 13 22 64 76 49 64 88 100 100 82 60 58 49 60 80 96 97 100 97 100 97 93 86 72 72 91 96 100 99 96 94 93 100 100 93 80 74 75 71 74 74 68 61 77 99 100
24 18 11 10 12 38 65 78 84 65 88 94 100 70 57 50 56 75 74 87 100 100 100 100 94 77 68 48 71 85 89 74 97 96 100 100 100 86 75 67 72 70 69 74 100 100 100 100 87
39 24 18 10 11 18 86 73 68 71 71 85 100 100 94 78 67 68 62 70 84 94 100 93 100 89 71 56 62 77 88 91 100 100 100 100 100 81 72 74 56 62 67 76 62 53 54 62 64
42 34 27 18 12 12 23 75 100 81 81 69 81 100 100 100 91 85 67 74 72 91 100 87 82 97 70 58 56 76 72 95 100 100 100 100 96 86 68 66 69 78 82 68 52 58 52 44 40
63 43 35 30 19 13 26 66 99 79 77 72 93 100 100 100 100 94 75 78 96 98 100 100 89 80 71 70 66 84 79 96 86 91 94 96 98 84 86 89 88 76 72 60 62 46 35 30 29
66 68 56 37 31 18 15 32 100 100 64 60 73 89 90 100 100 100 98 100 96 100 100 99 100 85 70 71 66 85 89 100 96 95 94 100 92 82 92 100 100 100 84 72 60 42 36 31 25
99 94 75 67 49 32 16 14 34 99 49 50 72 76 79 91 100 100 100 100 100 100 100 100 100 99 82 68 69 72 97 100 95 100 100 99 98 100 98 72 64 80 74 45 41 40 35 26 24
100 96 82 66 72 38 22 16 13 25 97 76 76 80 80 76 79 100 100 100 100 99 100 100 100 98 85 75 71 84 98 100 100 100 100 100 100 99 90 86 68 44 40 41 37 31 24 26 25
100 100 94 74 64 26 48 22 14 13 36 69 61 67 81 74 65 100 100 100 100 100 100 100 100 100 92 85 88 81 97 100 100 100 100 97 100 93 65 49 38 34 35 34 32 29 28 28 31
100 100 88 68 76 68 61 21 23 17 13 26 83 79 70 81 92 95 100 100 100 100 100 100 100 100 100 100 100 100 100 100 100 100 100 100 85 76 54 41 36 36 34 32 26 26 28 34 34
65 88 78 76 87 92 88 50 47 36 18 18 38 100 100 100 84 80 100 100 100 100 100 100 84 79 98 100 100 100 100 100 100 100 100 94 76 53 43 39 39 36 28 28 27 33 36 40 35
29 46 53 60 63 58 54 40 34 31 32 19 15 52 99 90 86 73 82 100 100 100 100 100 99 90 79 99 100 100 100 100 100 100 92 72 57 47 46 42 37 30 29 30 36 42 45 45 21
22 26 28 32 33 38 43 35 50 32 42 32 21 25 78 100 100 84 70 84 100 100 100 100 100 100 100 100 100 100 96 92 84 69 62 56 55 52 50 43 33 32 36 40 54 56 57 31 17
24 28 28 28 25 32 50 49 59 40 38 33 34 20 20 49 96 96 83 75 81 91 83 80 96 100 100 96 93 85 90 81 69 64 62 57 63 56 49 36 32 40 45 59 68 61 41 20 19

GFSSGP_250_rhum_279.txt.gz
RH
100 100 95 95 74 100 100 84 77 92 69 50 93 77 74 72 81 77 67 99 78 47 38 31 34 34 23 21 20 12 10 33 48 59 61 42 40 41 35 42 37 42 36 58 69 78 86 95 94
91 100 100 98 88 100 100 100 100 89 75 39 85 87 78 88 79 70 87 80 100 70 40 35 34 39 40 25 25 22 10 10 27 41 39 55 49 43 46 47 100 48 30 37 59 87 70 77 96
96 98 100 98 86 100 100 72 100 99 75 42 73 90 78 86 81 68 100 88 82 82 53 41 38 38 42 44 30 24 23 11 12 26 34 37 45 51 53 68 50 50 36 39 59 85 70 69 82
83 98 100 89 88 100 100 93 100 92 80 45 70 88 78 75 77 64 93 96 82 87 75 51 46 38 42 45 52 32 25 22 11 14 32 45 48 65 69 64 71 78 41 41 61 100 55 48 52
71 84 99 100 100 100 93 97 100 85 74 62 85 82 80 71 70 64 65 72 74 79 96 81 47 44 46 44 49 46 33 25 21 12 14 34 63 61 83 81 76 66 61 46 72 79 57 57 41
66 65 77 100 100 100 100 80 95 93 68 55 92 100 100 95 68 63 63 59 58 61 93 100 55 51 48 48 41 41 38 33 28 25 17 12 27 66 78 62 36 39 45 49 63 71 62 48 53
92 89 69 98 100 100 92 100 100 100 84 62 70 100 100 100 99 72 62 64 65 63 71 84 80 48 48 42 43 39 42 40 40 38 34 30 19 13 20 52 76 65 70 95 80 97 98 98 90
100 100 84 78 100 100 100 100 100 98 98 84 50 95 100 100 100 81 61 67 89 79 60 62 57 52 44 38 43 46 41 35 33 34 38 39 34 34 25 17 16 40 80 100 100 44 54 62 70
100 100 100 88 72 96 100 93 82 88 79 100 76 78 98 100 100 100 75 68 75 94 89 59 58 50 48 45 42 44 46 40 38 35 33 34 38 40 36 35 32 25 21 18 17 16 15 14 13
100 100 100 88 65 56 81 98 92 72 76 69 63 63 81 96 87 100 99 85 87 68 100 88 74 53 50 47 50 43 50 42 43 39 38 33 30 31 35 38 38 38 37 38 38 38 36 35 33
69 98 100 100 92 70 100 100 99 90 61 67 55 59 65 81 94 96 100 100 100 91 97 100 100 87 58 54 49 51 46 51 46 44 39 38 36 40 30 29 32 35 40 46 47 44 42 41 41
80 78 99 100 100 81 84 85 100 88 76 91 88 67 76 64 81 96 98 100 94 91 100 91 100 100 91 68 64 55 56 59 61 54 49 44 42 41 47 41 34 28 29 30 30 32 39 45 47
74 75 75 100 100 100 87 89 67 98 99 76 88 83 69 64 65 86 89 97 100 96 100 99 94 100 100 96 81 68 60 62 69 67 62 56 52 51 47 45 46 40 35 29 27 27 28 29 30
25 58 70 77 94 100 100 100 98 76 79 82 89 86 72 55 63 68 90 86 100 98 100 100 93 92 100 100 99 95 81 68 69 74 77 67 59 56 52 55 55 51 50 44 44 40 37 34 33
12 22 38 62 75 76 100 100 100 100 100 99 91 98 75 46 51 60 79 89 100 100 97 100 98 99 93 100 100 100 100 88 78 79 79 85 80 70 62 56 60 60 65 58 61 69 66 62 58
24 15 14 21 44 64 71 100 100 100 100 100 90 98 84 43 69 51 63 82 94 100 100 100 96 98 100 95 96 100 100 100 99 85 84 81 86 94 92 81 68 78 68 60 55 60 66 60 55
32 23 17 12 15 36 53 55 85 100 100 100 100 100 69 37 60 49 41 62 76 97 100 100 100 96 87 100 98 88 75 89 95 100 92 96 90 100 100 98 93 75 72 60 55 54 57 70 100
51 34 26 18 14 14 16 23 39 78 100 100 100 100 77 37 43 56 40 39 56 76 94 100 100 100 99 83 93 87 76 80 97 100 95 66 75 94 100 100 100 83 73 61 51 51 51 49 43
50 45 34 33 17 16 13 14 22 75 81 90 89 94 86 67 65 82 69 48 50 83 90 91 100 100 100 100 95 84 72 61 79 100 94 77 90 100 100 100 100 100 84 76 71 73 68 64 56
50 47 47 44 30 23 16 14 13 26 48 65 93 82 66 50 77 64 56 58 48 57 89 82 100 100 100 100 100 81 74 60 55 69 99 100 100 100 100 100 100 100 100 97 93 100 94 100 82
48 48 55 52 43 32 30 17 12 13 16 38 64 96 94 63 48 70 92 73 50 51 78 76 87 98 100 100 100 100 93 81 62 62 81 100 100 100 100 100 100 100 93 100 98 90 83 55 49
44 47 60 66 50 31 40 18 17 13 13 44 76 100 94 69 63 61 71 85 76 75 59 73 72 85 100 100 100 94 92 74 70 70 84 100 100 100 100 100 100 100 99 94 79 63 55 48 36
40 56 48 55 54 51 51 27 19 21 13 15 78 100 100 98 68 80 79 63 70 88 84 68 68 87 100 100 100 95 82 71 71 82 95 100 100 100 98 99 100 100 100 99 73 66 47 40 33
60 52 44 47 46 43 53 39 29 22 25 16 24 92 100 100 83 85 83 82 77 69 70 62 67 77 85 100 90 93 78 75 74 71 70 85 99 98 100 100 100 100 99 82 79 58 44 35 34
61 56 70 56 44 37 35 66 36 32 27 20 14 25 99 100 96 75 86 76 74 78 89 100 84 63 63 73 89 87 70 65 62 63 57 55 68 80 98 100 100 99 98 89 71 50 42 38 35
52 76 61 92 52 38 90 48 38 63 40 31 19 15 34 78 100 100 100 93 82 82 100 100 100 88 78 87 93 91 64 89 82 76 75 74 96 100 100 100 100 100 93 77 60 49 40 37 36
23 35 62 85 80 100 100 70 100 83 83 44 34 24 18 39 100 100 100 100 100 87 87 95 100 100 100 95 88 93 70 80 86 83 100 100 100 100 100 100 100 87 74 61 52 50 42 35 28
15 22 40 68 74 61 72 78 55 99 94 77 46 49 31 20 25 88 100 100 100 90 86 88 100 100 100 100 90 96 75 68 72 97 100 100 100 100 100 91 86 77 69 63 60 45 35 30 31
18 16 19 31 52 80 81 80 97 100 98 96 56 45 53 36 21 16 32 89 100 100 100 95 100 100 100 100 100 100 96 83 64 66 73 82 90 94 81 85 77 76 72 66 49 38 31 31 36
28 18 15 17 24 35 86 94 100 100 100 96 93 46 59 66 36 19 14 14 47 85 100 93 97 100 100 100 100 100 100 96 100 100 100 100 100 92 87 79 68 68 63 46 39 34 36 41 51

GFSSGP_250_rhum_282.txt.gz
RH
99 100 100 100 100 98 68 68 100 68 84 75 74 45 71 67 71 78 65 78 80 86 43 39 32 30 22 16 11 19 31 41 44 56 60 58 67 67 69 67 68 79 98 73 88 100 100 100 100
100 100 100 100 100 93 100 100 78 100 72 72 78 52 75 76 80 79 56 94 81 88 58 45 37 33 30 22 16 8 14 27 29 50 48 50 51 53 50 55 54 53 50 54 67 83 97 91 90
100 100 100 97 100 98 95 100 96 100 100 92 80 52 60 87 80 71 68 100 73 81 80 55 41 34 36 31 23 16 8 16 30 37 39 48 44 41 46 93 100 97 37 38 41 63 56 63 70
100 100 100 100 100 100 100 92 100 100 98 95 78 71 49 89 75 68 61 92 71 71 90 75 59 36 37 40 31 24 19 11 17 25 28 30 35 39 42 59 100 99 50 34 35 60 100 69 59
98 100 100 100 90 100 100 100 100 100 94 91 70 71 56 91 81 60 58 60 68 65 64 95 82 41 40 38 39 33 27 23 15 18 21 23 27 34 44 46 54 50 55 35 36 36 47 70 73
80 85 97 100 100 100 100 100 100 95 98 93 80 65 79 78 84 66 56 56 57 58 60 84 82 52 39 43 37 39 36 31 25 20 18 28 33 34 40 44 43 49 44 43 37 44 52 52 55
80 63 78 83 91 100 100 100 69 85 88 80 80 72 65 100 100 100 80 58 56 63 65 67 56 49 38 38 39 38 38 37 34 30 22 18 14 20 29 52 40 34 35 37 49 58 61 73 100
75 75 72 82 68 70 98 86 100 100 100 81 100 79 44 98 100 100 100 77 53 72 80 74 60 46 39 35 39 43 37 35 34 33 32 29 26 20 15 15 35 36 43 54 78 90 82 85 43
100 99 100 99 94 92 100 100 100 99 100 100 100 99 50 66 90 100 100 93 55 65 90 87 85 62 44 40 37 43 42 40 40 36 33 33 33 32 29 27 24 22 20 17 16 20 16 18 17
100 100 100 100 99 86 85 98 100 100 100 100 100 89 96 72 80 95 100 100 81 57 59 74 98 83 76 46 43 43 44 43 43 38 38 34 30 31 34 37 37 37 37 38 37 36 35 34 33
98 100 100 100 100 83 50 68 88 100 100 100 96 76 73 74 63 77 88 100 100 94 74 65 87 100 90 84 50 47 45 50 45 45 40 37 36 39 31 30 29 32 34 37 39 40 41 40 40
85 94 100 100 100 100 100 100 81 59 82 100 96 66 62 65 55 62 74 83 96 100 100 95 94 99 96 88 80 59 52 50 54 53 48 46 42 37 41 40 38 36 30 29 29 30 29 30 31
49 70 80 100 100 100 100 100 100 70 62 85 100 97 84 82 72 72 67 70 75 96 100 86 78 99 98 98 84 84 71 59 58 63 64 58 55 50 43 39 38 40 38 34 32 29 32 34 32
25 37 49 67 92 100 100 97 100 99 98 76 94 100 97 80 79 76 95 67 64 64 100 100 80 77 91 94 100 86 94 87 69 65 66 66 71 64 56 53 51 51 51 48 44 37 34 32 32
30 20 26 42 70 97 85 78 100 100 100 81 72 76 100 74 72 57 79 68 73 68 91 100 100 91 94 92 93 100 100 100 98 85 74 72 76 77 78 73 64 64 55 60 60 54 46 43 37
30 23 15 20 28 64 92 82 100 100 100 100 99 82 86 100 69 76 63 57 56 66 74 98 100 100 97 92 98 95 100 100 100 100 100 88 82 82 89 89 83 86 77 72 73 65 60 52 45
34 30 28 30 18 27 52 74 81 97 100 100 100 100 88 89 87 88 80 79 66 54 66 82 98 100 100 100 88 97 100 100 100 98 100 100 100 92 87 92 92 99 100 100 95 84 73 61 54
53 46 37 32 21 20 19 22 53 66 88 92 100 100 100 94 92 88 86 83 80 50 48 68 79 95 100 100 100 99 97 100 93 81 79 87 100 100 96 94 94 93 100 100 100 98 91 79 66
77 65 60 37 38 23 20 24 22 38 45 70 78 99 100 100 100 100 97 88 91 50 35 52 60 73 82 97 89 96 100 92 100 88 76 68 78 99 100 91 86 100 100 100 100 100 100 99 96
70 70 62 55 40 33 31 27 16 15 20 33 48 62 79 98 100 100 97 90 82 49 54 49 53 54 64 87 90 87 100 100 100 93 77 73 59 64 73 96 100 100 100 100 100 100 100 100 100
67 82 69 65 68 47 30 41 25 13 15 14 21 40 49 50 98 100 97 100 100 74 84 90 63 54 55 70 84 84 97 100 100 100 94 73 73 63 58 71 99 100 100 100 100 100 100 100 100
64 90 94 77 94 63 45 31 39 20 24 14 13 16 24 27 41 59 75 97 100 100 77 57 64 47 47 59 83 74 82 100 100 97 100 80 79 65 71 87 99 100 100 100 100 100 100 100 100
38 50 68 88 94 93 74 40 28 24 21 21 16 14 14 20 50 51 40 37 54 59 50 59 69 86 65 56 73 82 78 98 100 100 88 81 78 80 79 87 100 100 100 100 100 100 100 100 100
14 26 38 62 77 70 50 44 27 18 35 32 21 21 16 17 63 83 96 77 54 54 62 60 97 80 88 73 77 83 77 88 100 100 100 78 82 79 81 84 84 74 82 80 85 94 100 100 100
15 13 24 40 55 47 48 52 24 35 34 41 44 22 22 15 16 22 67 100 100 64 51 68 90 100 100 100 84 92 73 73 96 99 100 88 79 70 79 71 61 51 48 82 94 94 100 100 100
20 15 14 17 33 38 59 52 26 48 53 56 52 52 23 23 22 15 17 80 100 100 91 65 100 100 86 99 91 69 68 68 67 72 68 79 71 68 68 71 72 95 89 78 98 100 100 100 85
29 20 16 20 32 52 45 44 55 61 51 59 54 49 37 30 32 29 18 46 99 100 100 100 91 100 100 100 100 100 100 93 74 67 73 97 70 88 77 80 72 98 71 100 100 100 92 80 76
31 32 26 16 15 18 33 45 40 66 46 69 100 42 30 45 34 38 32 22 24 84 100 100 100 98 99 100 99 100 100 100 99 82 98 96 79 64 68 81 83 93 100 98 100 95 90 81 75
41 35 27 26 19 17 16 22 37 66 67 69 84 75 28 44 66 54 47 50 30 19 32 74 100 100 98 87 96 94 100 100 100 100 93 100 92 76 60 53 59 77 86 97 93 93 87 84 74
53 46 38 28 23 20 16 16 53 94 100 100 100 78 51 48 80 79 46 33 41 34 24 16 68 100 100 91 84 100 100 100 100 100 100 100 96 91 100 100 100 100 100 100 100 94 91 83 74

GFSSGP_250_rhum_285.txt.gz
RH
100 100 100 100 100 100 100 78 100 96 71 57 68 47 67 58 73 63 73 65 76 81 53 45 34 28 18 15 24 32 44 43 56 71 77 69 73 65 87 87 89 79 82 94 85 82 87 100 100
100 100 100 100 100 100 100 97 56 100 88 80 54 44 70 46 83 68 68 61 86 62 51 52 39 28 26 16 12 11 30 39 45 60 58 67 75 72 53 68 73 77 70 73 88 72 84 88 91
100 100 100 99 100 100 100 100 92 65 98 82 94 90 72 41 82 75 61 80 92 66 53 61 56 34 29 23 16 12 12 27 37 42 45 49 54 60 61 55 62 65 53 54 51 57 67 67 68
100 100 100 88 100 100 100 99 95 51 51 75 88 98 86 57 59 84 68 59 95 69 62 61 71 38 32 31 23 16 13 15 33 41 37 39 36 45 54 57 87 70 66 42 38 43 49 60 53
100 100 100 100 100 100 100 100 94 83 79 45 100 99 76 56 52 85 71 58 60 73 67 65 71 45 37 33 33 23 18 15 18 28 30 32 35 39 42 68 100 100 100 83 36 31 51 74 63
98 100 100 100 99 100 100 100 99 98 100 77 100 100 88 62 56 65 76 65 56 57 61 64 75 50 37 34 36 34 27 22 16 18 20 24 27 34 40 48 86 97 100 71 36 39 40 46 48
82 100 100 100 100 100 100 100 100 100 80 93 92 81 64 53 64 97 100 93 64 55 58 66 71 57 36 33 37 35 33 30 26 20 16 19 31 38 35 34 36 45 52 43 29 30 33 41 47
77 87 100 100 100 100 100 100 100 88 100 72 81 88 93 56 64 87 100 100 98 62 57 76 81 78 44 35 36 38 35 33 33 32 27 21 17 15 18 22 25 34 38 31 32 42 59 77 94
56 74 99 100 93 76 76 84 93 97 100 85 86 100 100 94 84 52 99 100 100 78 53 76 86 84 80 42 38 39 41 39 35 33 33 35 31 27 24 21 19 23 26 29 31 24 20 21 15
61 76 88 100 100 60 59 79 70 74 100 94 74 80 96 100 99 45 68 97 100 100 65 54 73 86 83 78 50 42 42 43 43 39 34 33 30 31 33 34 32 30 28 27 26 26 28 30 31
100 89 99 100 100 94 68 65 92 100 99 100 95 100 100 100 89 87 72 77 88 100 100 80 57 59 87 95 76 58 47 45 48 46 44 46 40 35 36 28 28 29 30 31 32 32 34 34 34
89 100 100 100 100 78 100 84 64 100 100 100 93 100 100 100 78 60 67 70 76 81 97 100 100 99 84 100 100 91 57 50 49 51 49 47 48 49 45 37 32 31 33 32 31 29 29 29 28
68 92 100 100 85 100 99 73 94 100 100 100 100 96 100 100 90 57 60 64 67 74 70 82 94 100 95 97 100 100 98 69 59 54 56 57 55 55 56 54 50 47 44 44 43 40 35 34 32
34 61 82 96 100 100 100 88 60 100 100 100 100 76 64 78 88 80 64 66 61 71 77 72 69 75 100 83 84 100 100 94 90 74 66 61 65 65 63 64 61 62 56 56 54 53 54 54 52
19 27 47 75 90 100 100 100 76 43 94 100 100 78 80 71 64 76 93 87 66 66 77 64 63 59 92 86 79 95 100 100 98 94 94 84 76 73 71 76 78 79 79 75 69 68 62 71 72
31 21 23 36 63 66 78 100 100 100 100 100 100 100 92 79 68 55 76 70 57 57 61 62 79 55 62 100 88 87 97 100 100 100 100 100 99 100 87 84 80 82 85 88 91 93 81 89 86
41 33 22 23 29 46 41 66 94 100 100 100 100 100 98 91 87 66 61 73 74 66 56 62 66 67 58 82 100 92 79 89 99 100 100 100 97 100 100 100 99 95 77 71 80 92 99 100 94
41 41 43 26 22 24 26 32 51 72 95 100 100 100 100 100 100 100 98 90 89 71 57 58 68 67 58 61 79 100 100 100 100 100 100 98 100 100 100 100 88 96 97 93 88 99 100 100 100
36 32 38 44 44 31 23 22 28 32 53 65 75 89 99 100 100 98 100 100 100 81 70 67 61 73 69 53 67 73 99 100 100 100 100 100 98 78 82 99 91 70 76 96 100 100 100 100 100
71 34 27 54 60 57 29 20 22 23 22 38 52 62 70 78 99 100 100 100 100 88 92 92 88 90 80 51 44 66 71 78 89 91 92 94 96 95 83 82 86 84 66 65 92 100 100 100 100
63 71 44 33 80 71 60 35 19 21 18 20 32 42 50 58 68 84 100 100 100 100 100 100 97 91 92 67 56 54 74 64 71 87 92 98 92 98 93 86 73 74 79 73 71 87 100 100 100
36 51 79 68 66 75 74 54 36 25 27 32 22 54 44 49 51 57 71 92 100 100 100 100 100 95 87 82 65 74 89 62 62 69 78 85 98 100 96 91 84 74 77 71 66 72 96 100 100
14 30 38 66 80 62 66 59 55 25 24 34 34 49 98 68 28 26 40 51 58 99 100 100 96 94 100 95 90 82 78 69 47 58 76 82 88 96 84 80 70 73 74 77 77 68 85 77 78
17 16 33 44 48 49 52 50 56 42 37 43 31 23 40 76 61 16 16 22 38 55 72 100 100 83 69 69 90 95 80 53 58 53 63 74 73 75 95 100 100 96 90 87 79 75 68 66 64
21 19 17 22 39 37 49 56 47 70 58 43 49 31 25 23 22 19 17 14 15 23 39 52 87 93 81 77 85 86 100 91 68 64 65 62 72 76 84 96 100 99 83 70 70 82 76 70 68
23 22 18 18 16 19 50 60 44 100 88 42 55 63 39 29 27 29 33 22 16 15 28 39 58 75 76 66 57 78 92 100 100 100 100 98 96 96 89 80 80 91 86 77 74 76 77 81 92
39 24 27 24 21 16 14 29 39 53 84 65 60 74 69 52 39 34 35 30 22 20 16 27 77 80 99 100 100 71 80 98 100 100 100 100 88 86 84 78 68 75 88 74 93 88 78 87 100
41 48 36 24 25 22 17 15 19 32 40 66 58 50 68 58 53 29 31 38 35 31 24 16 18 48 63 100 100 100 98 98 100 100 99 100 100 100 100 91 93 99 100 89 82 70 68 64 79
56 49 40 35 22 24 22 20 17 19 45 62 54 38 45 48 55 49 38 33 44 42 30 27 28 19 17 27 83 100 100 98 89 100 100 100 100 100 98 100 100 100 97 100 91 94 88 100 100
56 55 59 56 43 23 21 22 22 17 25 100 99 50 45 38 34 55 45 39 45 52 40 42 37 33 27 18 27 56 100 100 100 89 86 100 100 100 99 100 98 100 100 100 100 88 100 100 100

GFSSGP_250_rhum_288.txt.gz
RH
87 92 100 100 100 97 94 100 86 82 73 63 70 51 50 42 69 84 75 70 66 81 59 45 34 30 22 14 24 37 55 57 62 80 51 78 78 84 95 97 94 92 100 68 49 52 63 62 64
100 100 100 100 100 100 100 90 90 70 73 71 68 76 52 53 45 82 71 63 77 82 58 53 46 33 24 20 12 24 36 39 48 66 86 35 60 59 69 88 91 80 86 97 88 66 50 36 34
100 100 100 100 100 100 92 99 98 82 69 56 64 78 91 66 50 70 75 66 100 82 64 54 60 37 30 25 20 13 19 38 54 49 68 84 40 48 59 63 70 71 62 62 73 76 67 67 62
100 100 100 100 100 100 100 100 97 79 58 51 44 55 91 78 69 48 81 72 68 86 63 58 67 43 34 26 24 21 15 27 40 47 52 50 66 56 58 57 48 47 48 45 41 42 46 52 60
100 100 100 100 100 100 100 100 91 88 76 71 50 52 72 62 77 57 65 81 66 59 68 59 61 72 37 30 27 27 22 18 29 39 48 49 44 48 48 54 72 57 64 63 53 43 36 40 42
100 100 95 100 100 100 100 100 100 85 86 77 67 43 66 84 59 51 58 80 77 63 53 57 60 81 39 32 29 28 29 24 19 27 27 31 37 41 44 56 84 92 81 62 59 64 41 36 34
100 100 100 100 100 100 100 100 100 94 96 82 84 55 51 56 51 56 62 98 100 85 56 53 55 81 55 35 35 32 31 30 28 23 20 28 34 32 32 40 69 86 90 92 79 54 46 38 43
100 100 100 100 100 100 100 100 100 100 100 93 99 100 73 45 58 68 62 79 100 100 82 57 62 70 83 58 43 40 34 32 32 31 29 26 21 20 26 42 45 39 41 48 48 41 39 40 43
99 100 100 100 99 100 100 100 100 100 100 93 46 86 100 71 66 99 75 72 99 100 97 61 75 58 73 68 48 44 43 39 38 35 32 33 32 30 29 28 25 22 27 29 31 34 30 23 17
100 100 100 100 88 81 100 100 92 100 96 93 91 98 100 90 67 96 87 70 67 98 100 84 61 77 71 71 60 44 42 43 42 42 41 38 32 30 32 33 33 31 30 29 29 29 30 30 30
95 100 100 100 100 67 94 100 100 96 73 100 99 84 100 81 75 94 96 99 68 73 93 100 76 66 68 71 94 77 50 46 46 47 45 45 46 42 39 37 28 27 29 29 29 30 30 30 30
81 100 100 100 100 80 70 98 100 82 95 100 100 89 95 89 96 67 98 100 92 77 76 94 100 98 96 97 89 91 88 65 50 48 49 47 48 49 52 50 49 41 32 43 39 35 39 33 31
58 88 100 92 80 96 66 67 86 67 100 76 100 100 99 100 100 68 98 97 91 63 67 74 87 93 94 98 100 100 100 100 96 64 52 52 52 53 55 56 61 60 59 59 56 53 51 49 47
27 48 84 100 85 72 100 62 61 56 100 100 100 100 100 100 92 100 100 100 83 54 58 64 74 86 87 85 80 92 100 100 93 94 91 68 60 60 58 62 63 63 66 69 72 70 76 70 70
21 21 30 76 100 98 86 100 50 56 93 100 100 99 91 100 100 100 100 100 98 76 66 63 68 67 70 69 63 78 92 79 85 92 94 92 91 90 75 71 74 74 76 80 82 83 79 76 76
29 23 25 27 71 99 100 100 58 52 95 100 100 100 99 96 100 100 100 100 87 70 66 66 72 62 62 63 62 50 75 96 88 91 92 100 100 100 100 96 87 87 83 81 83 88 87 69 81
38 30 24 41 36 67 80 99 92 44 99 100 100 100 100 70 58 80 100 100 95 81 71 64 67 57 57 56 58 60 51 87 100 94 98 90 99 100 100 100 96 98 98 99 93 80 88 88 88
45 45 41 44 34 34 51 72 100 57 78 100 100 100 100 95 76 73 75 96 92 81 81 61 53 61 52 54 54 48 55 51 78 100 98 89 89 93 100 100 100 100 100 100 92 86 64 63 66
79 41 41 49 59 33 30 31 69 100 71 100 100 100 96 100 100 100 100 98 100 100 89 92 91 77 71 65 62 55 63 67 57 67 93 100 100 100 92 77 76 82 78 86 87 75 78 74 74
64 66 53 58 71 43 36 32 31 64 81 91 100 100 95 87 100 100 100 100 100 100 100 100 100 89 83 79 89 80 80 71 63 51 74 69 93 98 98 94 89 90 90 81 84 90 83 82 82
28 46 63 70 65 51 45 36 28 30 46 59 82 99 100 100 100 100 100 100 100 100 100 100 100 89 84 98 100 98 93 87 76 56 57 68 66 72 83 90 86 88 81 83 77 81 89 90 91
25 35 42 57 69 59 45 35 38 32 33 31 37 46 60 99 100 100 100 100 100 100 100 100 100 95 85 88 98 100 100 89 87 78 66 62 70 69 69 64 74 88 88 78 86 90 88 88 80
14 22 40 52 51 67 66 41 33 30 36 48 29 23 26 26 31 54 60 76 78 74 75 83 100 94 87 89 100 100 90 71 77 76 69 69 76 72 58 50 64 78 81 80 79 90 100 98 86
16 14 15 35 75 76 90 64 38 32 31 39 62 48 36 34 26 22 21 23 33 42 44 51 64 92 100 94 99 100 99 87 80 75 70 74 76 58 38 49 56 59 76 84 88 99 100 100 92
20 19 17 15 23 45 100 100 47 38 31 35 55 69 59 49 54 90 86 78 50 51 46 38 44 49 63 96 98 100 100 100 99 93 98 98 87 56 78 68 70 77 74 91 97 88 82 100 100
20 21 20 16 15 17 37 74 65 72 62 36 34 49 73 69 60 82 100 100 100 100 98 64 31 32 33 54 100 100 100 100 100 100 93 100 100 99 100 100 99 100 100 100 99 82 73 90 100
35 26 32 24 21 15 16 15 27 54 73 58 43 42 42 69 65 66 81 87 100 92 93 82 55 24 21 22 32 74 99 100 100 100 100 100 99 99 100 100 100 100 100 100 89 100 94 96 99
33 37 33 23 22 22 22 19 18 16 24 50 54 62 52 35 45 57 58 63 79 100 81 56 48 32 18 16 16 23 61 90 99 96 78 100 100 93 97 100 100 100 100 100 100 100 100 100 100
37 41 34 30 21 19 22 19 23 21 18 20 39 49 62 54 38 35 42 52 55 57 54 52 32 27 25 20 18 17 16 24 52 77 86 100 100 100 100 100 100 100 100 98 100 100 100 97 100
62 39 35 30 30 23 22 23 31 31 25 19 19 24 36 36 35 37 52 70 66 63 63 45 42 32 28 29 27 24 20 18 17 22 48 75 100 100 100 100 98 97 100 100 100 100 88 90 95

GFSSGP_250_rhum_291.txt.gz
RH
42 38 76 74 48 67 68 94 100 100 100 87 70 64 81 56 44 35 48 58 76 88 75 58 48 35 26 15 24 44 63 76 80 94 88 97 46 49 46 58 87 54 43 38 32 33 37 37 33
84 57 62 72 93 88 94 100 100 100 99 78 67 52 55 48 50 37 58 74 77 86 72 80 56 35 31 23 13 26 45 60 57 61 96 78 88 60 64 57 72 87 72 60 36 31 24 30 33
100 100 64 96 100 90 100 100 100 100 100 87 68 46 47 80 61 46 66 78 79 92 78 80 60 42 36 28 20 13 31 49 47 52 54 75 51 71 62 70 74 84 83 78 70 64 50 37 41
100 100 80 100 100 100 100 100 100 100 100 74 57 54 44 79 76 64 53 74 74 78 94 78 50 68 38 31 28 23 15 40 58 71 54 56 61 58 49 52 52 51 49 53 49 54 56 55 48
100 100 100 100 100 99 100 100 100 100 99 71 68 57 42 41 54 58 41 68 84 77 77 70 55 59 42 34 32 31 24 26 51 71 71 66 53 75 61 62 57 52 45 38 33 31 31 31 32
100 100 100 100 100 100 91 88 90 87 78 78 74 59 48 50 42 43 37 49 74 93 83 65 52 50 44 35 34 33 34 27 32 55 64 60 57 54 57 71 68 58 66 64 65 59 57 52 41
100 100 100 98 100 100 100 99 80 88 77 71 80 76 66 54 55 44 41 44 71 100 98 72 57 49 49 37 35 35 33 33 33 26 29 32 45 50 54 61 83 67 74 57 58 62 62 52 74
100 100 100 100 100 100 100 100 95 81 84 92 85 84 62 43 80 56 45 45 76 100 100 91 66 66 59 50 38 38 37 34 34 34 34 32 25 27 43 58 74 99 100 100 100 84 84 72 54
86 100 100 100 100 95 100 100 100 100 100 80 90 100 77 53 61 86 56 67 64 99 100 94 61 75 69 62 49 37 40 39 38 37 35 34 33 33 30 27 25 22 25 28 35 35 35 34 32
97 100 100 100 100 99 84 100 75 100 100 100 93 99 79 73 78 79 62 63 53 72 100 99 78 62 81 70 71 66 47 42 42 43 43 42 42 35 30 33 31 31 33 33 32 32 33 33 32
100 100 100 100 91 88 100 100 100 100 100 100 100 99 72 55 81 97 66 63 46 58 68 88 99 88 69 71 74 97 78 64 49 47 47 46 44 45 44 47 47 36 31 31 36 38 34 33 34
99 100 100 100 98 74 88 100 100 100 100 100 100 94 80 86 68 100 88 78 55 75 89 82 76 100 99 100 100 89 97 100 84 62 49 48 48 47 48 50 53 56 51 52 52 57 55 52 54
53 91 99 100 98 86 64 92 100 100 100 100 100 100 80 55 65 100 100 100 63 53 69 71 74 81 96 96 99 99 100 100 100 100 81 56 52 52 52 52 55 59 61 60 62 64 67 65 71
21 38 63 80 91 100 85 63 86 100 100 100 100 100 100 97 51 68 100 100 92 71 70 62 61 64 71 89 99 99 88 91 100 100 100 98 85 64 56 56 59 60 61 66 65 62 65 73 79
22 31 42 50 76 93 100 85 68 92 94 99 100 100 100 100 99 100 100 92 100 100 98 81 62 61 64 66 79 85 83 71 85 91 92 97 100 98 93 85 80 77 74 71 75 74 79 76 75
34 28 38 40 45 65 86 100 92 61 92 100 100 100 100 100 100 100 100 98 69 76 99 100 82 78 77 61 69 79 70 67 66 70 98 100 98 95 99 95 87 94 99 95 85 82 80 83 78
31 33 47 42 28 30 49 95 100 64 57 87 100 100 100 100 100 100 98 100 100 100 100 100 93 80 77 74 74 64 61 59 55 50 51 81 92 95 90 95 100 100 100 92 90 97 97 93 94
44 39 46 80 48 22 22 41 100 96 51 65 100 100 100 100 100 100 91 88 98 100 98 96 86 86 76 80 65 59 57 58 55 51 53 54 66 93 100 93 90 97 100 100 100 100 100 91 82
26 41 36 63 72 34 20 22 35 100 87 52 67 100 100 100 100 100 86 73 93 96 85 73 75 78 91 86 74 71 85 78 66 66 59 63 63 60 67 98 100 99 97 85 79 79 80 80 76
34 32 38 64 93 64 29 19 23 33 90 93 56 65 100 100 95 100 80 78 69 63 58 54 67 77 84 89 89 93 94 98 99 97 97 86 80 70 59 57 65 72 87 94 90 92 86 78 81
30 47 74 93 92 69 50 29 20 23 26 77 92 59 82 100 100 100 100 100 73 77 70 65 65 58 66 75 72 71 80 81 91 88 92 88 85 75 74 55 49 58 63 65 62 59 68 69 66
16 32 49 96 100 96 66 46 26 26 28 26 73 100 72 100 100 100 100 100 100 97 83 75 82 81 84 92 81 78 71 73 80 85 100 96 79 72 71 79 70 52 73 80 64 53 53 63 78
14 16 34 52 100 100 88 65 41 30 28 37 31 42 96 100 100 100 100 100 100 100 100 100 100 100 100 100 100 100 96 79 81 79 72 84 89 78 67 71 74 80 86 82 58 48 47 58 68
19 15 15 35 47 97 100 95 81 48 34 43 46 38 37 59 67 96 100 100 100 100 100 100 100 100 100 100 100 100 100 96 95 96 84 80 80 82 70 70 73 90 98 96 79 60 52 74 96
20 22 16 14 25 35 90 100 68 98 76 57 59 50 47 40 61 53 54 77 88 96 98 97 100 100 100 100 100 100 100 100 100 100 100 84 79 73 79 74 85 91 87 77 67 80 91 97 100
25 21 22 20 16 17 31 49 59 82 88 68 55 48 59 53 39 50 57 53 47 53 62 59 68 91 77 73 71 71 72 80 88 86 91 99 100 98 93 77 87 97 98 85 68 70 87 100 100
29 25 26 23 21 17 15 18 27 39 60 86 86 71 62 70 75 82 67 56 65 51 42 41 39 44 34 30 36 35 35 36 39 48 82 84 78 84 92 92 98 95 100 100 99 87 100 100 100
42 32 26 22 20 19 19 18 19 19 37 47 51 61 64 61 64 63 73 71 57 62 70 67 58 67 67 66 59 60 55 37 32 34 36 45 64 85 100 100 100 100 100 100 100 100 98 98 98
46 42 33 28 25 20 19 19 20 19 14 17 28 36 50 63 67 77 61 62 52 66 84 83 81 79 61 80 67 79 74 76 54 42 32 26 22 33 74 100 95 96 88 94 100 100 100 100 100
47 44 43 38 32 29 26 24 25 23 24 16 15 16 24 40 57 70 70 81 72 58 74 82 96 94 98 96 76 91 100 98 94 61 33 23 19 17 16 17 24 37 69 90 81 97 100 96 92

GFSSGP_250_rhum_294.txt.gz
RH
27 17 24 24 45 57 79 56 100 97 58 88 93 90 77 56 63 58 43 39 46 55 61 57 56 34 33 18 36 61 65 72 100 100 90 48 34 46 65 76 82 73 63 49 43 34 31 30 30
51 29 37 29 77 88 68 64 87 90 81 100 100 92 71 45 50 52 42 45 47 66 73 59 71 42 39 26 15 46 62 70 77 71 100 96 50 43 31 32 50 52 44 41 37 34 32 31 26
64 60 32 36 56 88 65 85 64 98 100 100 100 97 74 53 48 61 38 46 60 75 76 56 67 64 42 33 22 17 58 64 68 65 65 90 80 68 65 60 59 55 51 61 48 33 26 26 26
65 50 49 48 48 100 69 93 100 100 100 100 100 95 66 58 50 69 57 42 65 64 80 61 71 69 42 37 30 17 33 75 76 66 76 89 73 75 67 60 68 55 40 45 36 34 46 42 36
100 100 100 100 76 97 93 100 98 100 100 100 100 80 64 65 54 64 54 44 46 60 63 55 67 60 37 40 34 26 20 55 84 84 77 77 82 74 76 67 53 50 47 44 42 38 41 42 45
100 100 100 100 100 84 99 100 100 100 100 100 100 90 76 56 48 53 56 50 36 47 60 61 63 55 38 34 37 35 26 32 73 82 75 68 74 88 78 78 68 60 52 50 46 50 42 40 39
100 100 100 100 100 100 100 100 100 100 100 100 100 98 81 59 52 54 65 50 39 55 72 62 58 50 44 32 34 36 36 31 31 58 75 72 65 63 71 64 81 72 63 48 52 53 63 57 64
100 100 100 100 100 100 100 100 100 100 100 100 89 95 88 97 73 51 74 64 56 70 70 91 59 46 50 35 36 37 38 35 34 30 25 27 45 52 51 59 58 66 65 78 60 82 96 97 57
98 100 100 100 100 100 100 100 100 100 91 75 66 90 85 100 82 47 46 72 64 71 86 90 83 45 58 48 35 36 40 40 39 37 36 36 33 30 30 30 31 39 55 64 48 35 35 34 31
93 100 100 100 100 86 100 100 100 100 99 82 73 85 83 80 83 58 53 74 71 82 79 99 63 54 53 60 56 45 39 40 42 43 44 43 43 41 35 39 40 33 30 30 30 32 36 33 34
86 100 100 100 100 96 96 100 100 100 100 99 72 92 84 99 99 70 73 95 87 95 96 67 79 58 52 65 63 60 66 61 50 45 46 48 48 45 45 47 51 52 43 39 34 42 51 48 42
56 96 100 100 94 88 86 100 100 100 100 96 100 90 100 91 95 73 82 98 98 100 100 84 62 84 77 59 64 68 69 85 92 75 56 48 49 50 50 50 51 54 58 60 57 60 64 63 60
23 51 92 91 99 77 93 100 100 100 100 100 100 100 100 95 99 70 100 81 93 100 100 92 88 78 67 86 72 82 78 75 92 98 95 80 68 54 53 54 53 54 56 60 62 63 63 63 62
32 28 39 93 100 100 73 86 100 100 100 100 100 100 100 100 100 100 96 67 86 100 100 100 94 69 61 57 78 90 89 86 81 87 100 100 98 89 80 71 62 59 59 60 64 68 68 70 67
41 34 32 38 89 100 100 65 79 100 100 100 100 100 100 100 100 100 72 68 78 91 100 100 100 98 81 53 54 61 78 87 84 75 77 94 98 99 98 98 88 83 83 88 89 87 83 81 80
56 44 38 38 35 80 100 100 66 75 100 100 100 100 100 100 100 85 80 50 91 84 100 100 100 100 100 75 46 53 60 70 74 73 66 61 63 68 79 86 90 95 98 96 99 99 100 100 99
49 55 51 50 32 29 66 99 98 60 68 98 100 100 100 94 100 99 93 93 70 80 90 97 93 92 100 97 61 68 65 71 66 68 67 64 58 56 53 62 74 76 70 78 91 90 87 79 78
29 44 58 59 40 21 19 46 80 82 70 70 100 100 100 100 100 100 100 100 95 80 71 84 65 94 100 100 77 73 66 74 71 62 63 64 62 59 56 52 53 62 73 84 86 85 84 90 94
19 29 50 61 54 34 19 16 21 47 82 75 74 95 100 100 100 100 100 79 91 92 100 82 70 93 100 100 82 66 67 68 77 71 70 67 61 58 58 56 54 54 60 57 53 67 86 97 97
13 21 35 66 77 50 33 22 20 18 40 93 89 90 100 100 97 100 100 89 76 68 84 100 100 100 100 100 79 86 86 73 68 69 70 64 56 54 53 57 66 64 63 58 60 46 44 52 62
11 16 28 65 90 53 41 29 23 22 19 29 98 98 100 99 97 98 100 100 100 72 90 76 89 90 100 100 96 77 58 58 61 63 73 85 76 67 61 60 63 74 64 54 66 70 67 53 50
14 12 19 42 58 73 42 37 28 23 25 21 25 100 100 100 100 100 100 100 100 100 100 100 92 86 85 95 95 73 51 43 62 61 69 78 82 81 86 69 60 57 56 60 60 63 66 61 62
18 14 12 21 56 96 68 36 37 33 25 28 28 28 90 100 100 100 100 100 100 100 100 100 97 75 61 56 58 60 69 65 66 72 84 79 82 76 75 71 64 65 63 56 52 50 54 56 57
20 19 17 13 14 41 78 65 39 36 38 36 49 41 34 82 100 100 100 100 100 100 100 100 100 94 70 73 94 96 100 100 100 100 99 89 82 72 73 72 68 66 56 51 52 52 50 56 62
23 21 20 19 14 12 30 79 87 82 50 46 52 63 49 41 55 100 100 100 100 100 100 100 100 100 100 92 100 100 100 100 100 100 100 91 93 84 73 65 64 65 63 68 70 70 70 74 73
28 27 21 21 20 16 15 21 68 97 73 45 32 37 43 44 46 37 98 100 100 100 100 100 100 100 100 100 100 100 100 100 100 100 100 100 97 97 85 67 68 61 57 65 83 89 94 88 79
39 33 34 24 22 22 20 17 16 43 76 72 63 43 35 37 38 41 31 48 94 100 100 100 99 92 86 98 100 100 100 92 84 92 85 85 78 63 48 44 44 54 64 70 90 100 100 80 81
33 37 35 28 22 22 23 22 20 15 24 47 83 86 75 54 57 75 72 56 50 48 65 75 83 88 92 97 100 100 100 100 94 95 81 65 52 38 30 36 38 38 40 63 88 95 83 71 93
47 38 35 38 29 21 23 23 25 22 15 19 38 55 72 68 68 92 100 99 90 80 62 78 85 92 100 100 100 100 100 100 96 78 68 55 50 54 69 76 72 60 47 32 24 19 18 22 25
52 50 42 36 35 33 28 25 25 26 25 17 15 21 38 45 54 64 82 90 99 100 98 83 89 96 100 100 100 100 100 100 100 100 100 100 96 84 100 100 98 89 56 36 32 28 25 23 22

GFSSGP_250_rhum_297.txt.gz
RH
18 18 16 12 13 20 51 70 66 56 45 64 98 100 98 90 72 56 51 49 52 45 36 34 30 29 25 16 56 94 100 91 99 81 67 76 86 86 75 86 86 87 88 85 90 86 72 61 47
32 36 20 16 16 32 64 87 100 76 74 71 92 100 100 97 62 48 47 52 58 54 44 36 29 30 30 23 25 69 86 98 94 99 98 52 68 67 66 78 80 73 57 44 47 44 44 39 35
41 52 32 18 30 41 80 99 100 92 74 82 93 100 100 88 75 52 56 56 62 65 60 46 31 34 30 29 20 37 73 89 98 92 100 94 56 42 35 51 53 47 44 42 40 36 32 29 26
51 40 40 43 34 37 84 100 100 97 89 100 95 100 100 88 59 54 65 64 54 48 74 62 41 40 32 33 27 20 58 79 68 79 66 86 98 71 57 51 44 38 33 45 42 33 30 29 30
61 49 60 77 64 44 78 100 100 94 95 98 94 100 100 81 60 59 68 60 57 58 59 58 52 44 35 33 32 19 35 85 75 85 94 93 97 93 91 80 82 67 52 37 37 36 30 26 32
77 66 68 96 94 39 59 81 98 100 100 94 100 100 100 71 71 56 61 57 57 59 68 60 57 47 43 39 32 27 22 48 60 74 91 100 100 90 80 68 71 68 65 58 46 53 55 41 55
79 100 98 99 85 67 59 90 100 100 100 99 100 100 99 81 78 52 49 60 68 57 69 74 60 49 46 37 38 32 25 30 75 67 78 79 89 96 89 90 95 89 75 74 78 76 58 69 73
82 99 100 100 100 99 100 100 100 100 100 96 100 98 100 91 71 60 60 58 67 84 68 72 99 58 47 41 35 36 34 29 26 49 60 60 56 56 60 68 57 72 79 60 50 47 64 70 73
59 85 100 100 100 98 100 100 96 100 100 100 100 100 100 86 77 84 68 63 55 79 74 72 100 84 50 50 35 38 38 36 34 30 27 24 28 32 33 34 37 36 32 47 55 74 28 31 30
46 97 100 100 98 73 100 100 100 100 100 100 100 100 86 83 92 97 60 56 58 92 65 87 97 100 69 49 45 35 37 40 40 40 42 41 39 32 31 31 32 30 31 32 33 32 38 39 32
32 69 100 100 97 68 100 100 100 100 100 100 100 100 98 80 91 78 63 71 84 99 80 94 98 95 88 58 51 45 39 40 41 43 45 46 46 44 43 45 49 51 47 41 32 34 46 54 53
19 48 82 94 89 86 93 100 100 100 100 100 100 100 100 80 89 81 89 60 51 89 99 98 100 100 98 87 81 62 47 49 62 55 51 46 47 48 48 49 50 52 54 57 60 60 60 63 65
28 23 38 79 82 72 73 100 100 100 100 92 100 100 100 97 87 96 100 92 51 79 94 100 97 100 100 100 86 83 65 53 59 76 82 68 60 54 52 50 52 52 52 52 55 57 60 63 66
37 29 22 41 88 100 66 88 100 100 100 100 100 100 100 98 92 100 100 100 56 73 89 100 99 94 100 100 89 76 69 76 54 61 74 86 87 85 76 70 67 68 63 61 62 63 64 69 74
59 38 30 22 41 88 100 59 100 100 100 100 97 78 76 79 92 100 100 100 70 80 84 100 100 100 100 100 100 88 83 67 72 66 56 68 74 81 83 85 85 81 79 79 78 81 82 86 84
44 55 40 32 27 30 66 100 76 100 100 100 100 100 95 70 91 100 99 92 76 97 93 58 77 98 100 100 100 100 92 89 59 47 58 64 60 56 60 62 60 57 58 69 82 85 84 92 95
50 48 57 47 34 28 28 80 85 72 97 100 100 100 100 100 95 100 89 84 92 100 94 92 58 63 90 100 100 100 100 100 71 54 55 48 50 57 60 56 53 50 49 54 66 68 72 74 68
27 44 37 49 48 38 30 26 72 75 61 79 100 100 100 100 100 100 100 85 77 93 100 100 85 83 87 85 90 95 100 100 98 75 70 66 59 56 55 52 52 52 51 49 47 45 48 48 50
10 28 54 47 49 46 38 31 26 80 97 87 85 100 100 100 100 100 100 100 95 88 77 71 74 87 75 73 84 76 61 93 100 90 77 62 63 58 58 58 61 59 54 47 49 46 41 46 44
11 10 22 50 44 43 49 38 36 26 80 100 100 100 100 100 100 100 100 100 84 87 71 75 67 56 52 60 59 78 57 100 100 97 80 72 72 70 71 61 56 63 55 54 49 46 44 43 45
15 12 11 27 49 38 37 47 36 36 27 72 100 100 100 100 100 100 100 100 100 100 83 77 91 78 68 63 54 45 68 100 100 98 83 84 71 63 51 56 55 50 46 46 48 47 50 52 49
18 17 12 12 36 44 34 47 47 42 36 25 48 100 100 100 100 100 100 100 100 100 100 100 98 100 91 73 87 100 91 95 92 100 92 82 80 68 48 46 51 50 47 48 45 48 44 40 43
22 18 15 12 12 24 32 34 52 46 45 38 31 32 82 100 100 100 100 100 100 100 100 90 93 96 99 100 84 73 79 86 97 99 91 74 81 69 58 43 46 54 57 45 42 44 44 47 54
23 19 19 16 12 12 22 26 39 46 53 54 52 56 39 57 100 100 100 100 100 100 100 100 100 100 94 100 100 100 78 72 74 60 60 70 69 59 50 44 48 62 54 47 47 49 65 66 61
23 24 22 20 17 13 12 15 24 31 45 54 42 40 41 36 38 79 100 100 100 100 100 100 100 100 92 89 90 81 72 70 90 63 47 78 81 91 97 87 84 92 81 70 73 75 80 56 53
30 33 25 22 20 20 20 12 11 21 27 46 49 46 47 52 48 37 43 68 90 100 100 96 88 100 100 100 97 84 91 100 98 99 96 99 100 100 100 100 95 82 89 85 92 72 46 33 35
33 29 33 25 20 21 20 18 12 11 21 35 62 51 47 50 54 59 55 38 56 93 100 100 100 94 94 100 100 100 100 100 100 100 100 100 100 100 100 96 88 79 62 62 56 47 32 37 39
44 49 38 26 21 20 23 22 19 14 13 16 37 72 68 55 62 61 80 78 45 37 46 96 100 100 100 100 100 100 100 100 100 100 100 100 100 100 100 100 90 78 79 66 59 46 48 60 58
48 45 45 37 26 22 23 25 24 18 16 15 13 28 61 71 74 87 87 95 100 81 59 44 56 97 100 100 100 100 100 100 100 100 100 100 100 100 100 100 100 93 80 77 74 75 82 77 75
57 48 45 46 37 30 25 24 26 25 20 18 16 13 13 26 51 76 92 96 100 96 82 65 52 52 63 96 100 100 100 100 100 100 100 100 100 100 100 100 100 98 94 99 95 96 87 92 92